Theta_e
323 324 325 328 330 337 337 336 334 330 329 331 328 327 329 326 324 327 327 313 311 310 311 317 326 325 324 323 324 324 323 322
325 324 325 327 328 330 333 334 332 330 330 327 326 326 330 326 326 327 322 313 311 310 311 320 324 323 322 323 324 323 322 320
333 329 325 330 333 333 332 334 333 331 327 325 323 323 330 326 329 326 315 311 309 309 308 316 322 321 322 323 322 322 322 316
332 332 328 331 334 333 331 332 331 328 325 325 324 324 324 328 330 322 312 309 307 307 308 311 320 321 322 321 321 320 319 318
333 331 328 331 332 330 330 330 328 327 326 325 325 329 330 330 327 317 310 307 306 307 307 311 319 321 321 321 321 320 320 319
333 331 328 329 330 327 327 327 328 327 327 326 325 325 328 330 324 313 311 306 307 307 307 309 319 320 320 321 320 320 320 313
331 330 329 329 329 329 328 328 327 325 327 325 328 329 327 327 322 313 310 307 307 307 307 313 319 320 320 321 321 320 320 312
330 328 328 328 329 329 328 325 325 325 325 325 329 329 328 327 323 314 310 310 308 308 307 312 318 318 320 320 320 320 320 317
329 327 328 327 328 328 328 325 325 326 326 326 328 329 328 327 322 314 313 313 312 315 315 311 318 318 319 319 320 320 319 315
326 324 327 326 326 327 326 327 327 328 328 327 332 327 327 326 320 316 316 315 318 319 320 318 318 317 319 319 319 319 319 318
323 326 326 328 327 326 326 327 329 330 330 327 327 324 326 325 320 318 317 316 321 323 321 319 318 317 318 318 318 319 319 319
323 325 326 326 327 326 326 326 326 328 328 329 328 327 327 323 320 320 321 319 322 323 321 319 317 317 317 318 318 318 318 319
325 325 326 326 325 325 326 326 327 327 328 328 326 327 324 322 321 324 324 322 322 323 321 318 318 317 317 317 318 318 318 318
325 326 325 323 323 324 326 325 326 326 326 324 324 325 324 324 324 326 324 324 323 323 319 319 318 318 317 317 317 316 317 317
324 324 324 324 323 327 326 326 325 327 325 325 323 322 323 325 324 323 324 324 324 322 320 318 318 317 317 317 318 318 318 317
326 324 325 325 324 325 325 326 326 326 326 325 324 324 322 324 324 324 321 320 322 321 319 317 317 317 317 319 320 318 321 320
325 324 323 324 324 325 325 325 325 325 325 325 324 324 324 322 322 318 322 322 322 319 317 318 318 318 319 319 319 320 321 321
323 324 323 322 323 324 324 325 324 324 323 323 324 323 323 322 319 316 318 318 317 317 318 317 319 319 319 319 317 319 320 320
324 324 323 322 323 323 324 324 324 324 324 324 323 322 321 320 316 314 315 315 314 319 318 318 318 318 318 318 318 318 318 320
323 323 323 322 322 323 323 324 324 325 325 324 322 320 321 319 315 314 313 314 314 318 318 318 318 318 317 317 318 317 317 317
Wind_Speed
11 13 13 15 19 22 26 31 31 27 28 24 14 19 23 23 22 22 20 21 26 29 32 36 37 31 27 20 20 22 11 6
7 13 16 17 18 23 23 26 30 30 27 26 31 31 26 24 26 23 20 21 26 29 34 37 35 30 25 23 23 18 8 5
12 12 13 13 14 21 25 28 28 24 24 28 27 27 37 34 30 24 23 24 27 30 30 36 35 32 26 24 21 13 6 7
14 13 12 13 14 17 23 26 27 25 25 29 28 30 45 38 31 26 26 27 27 30 33 36 35 33 29 22 14 9 7 6
14 15 11 13 13 15 18 22 25 27 28 36 29 31 45 41 34 31 30 29 30 32 36 37 35 33 28 19 18 13 6 3
14 15 11 13 12 13 15 19 22 21 27 28 36 44 46 43 38 37 34 33 33 34 35 37 37 30 27 18 16 11 6 10
11 12 12 16 13 12 12 14 16 15 22 28 33 50 51 46 42 39 36 35 34 34 36 38 33 30 28 16 13 11 7 11
13 11 14 14 13 10 10 8 6 22 18 39 30 50 50 46 43 41 38 36 34 33 34 36 27 24 27 18 12 13 9 7
16 14 13 12 14 10 13 13 9 21 16 31 38 50 48 46 43 41 39 37 34 30 26 30 23 20 28 13 13 12 10 9
16 11 12 13 13 12 15 10 12 24 27 44 37 55 48 44 44 42 39 37 33 29 25 24 23 22 29 21 13 11 9 7
9 11 13 13 15 15 15 14 17 20 30 40 50 45 43 44 45 41 38 38 32 30 26 26 23 25 24 22 19 11 9 8
10 11 11 15 16 17 17 16 18 21 35 41 41 44 40 39 43 38 34 36 32 31 28 26 24 19 20 17 14 15 11 12
13 14 14 13 14 17 22 23 21 26 32 39 41 36 37 38 41 37 34 35 32 31 27 27 26 20 23 20 17 12 13 13
17 15 13 11 12 13 18 27 28 28 35 36 41 40 38 38 41 37 37 37 34 33 32 32 29 26 26 23 19 18 21 19
19 16 13 11 8 11 15 22 30 35 39 46 47 45 42 35 39 36 38 36 37 34 34 33 30 27 26 15 9 6 13 21
19 18 15 11 7 8 12 23 31 38 39 40 48 50 39 40 38 37 36 34 35 35 32 32 32 32 25 15 10 11 10 7
23 19 17 17 12 11 12 27 31 33 40 46 52 54 46 38 37 38 36 37 34 30 33 32 29 24 24 19 17 15 13 13
26 23 21 20 18 18 16 23 32 38 45 47 53 54 54 48 46 45 33 34 35 31 32 29 24 20 19 20 20 19 20 22
27 27 25 23 24 22 21 23 31 36 42 47 55 53 49 46 42 42 47 36 36 32 31 29 25 24 22 21 21 22 20 20
29 30 28 27 27 26 26 26 30 36 37 50 53 44 38 45 50 47 35 35 40 37 30 28 26 27 28 28 28 25 25 27
Wind_Direction
246 249 247 241 229 222 220 220 202 195 189 200 220 207 201 187 183 178 185 164 155 152 149 146 144 139 132 136 152 162 150 133
274 260 245 240 230 225 225 226 207 203 202 218 223 220 200 195 194 186 184 171 159 153 152 150 145 138 134 138 153 159 167 141
298 286 263 238 230 222 219 220 220 222 225 222 216 231 202 195 196 183 178 174 164 158 156 155 146 145 134 138 155 156 172 144
285 286 275 237 240 226 218 219 221 226 228 224 221 221 224 197 193 184 174 172 166 160 156 155 153 147 135 153 158 160 150 128
269 282 270 235 239 226 214 218 229 231 227 225 220 174 188 194 185 181 174 170 164 159 156 154 153 148 144 157 159 166 163 198
252 261 261 239 236 230 216 226 242 239 223 221 197 198 184 189 184 177 176 168 163 159 156 156 151 150 146 153 157 175 189 178
235 257 243 236 228 233 236 250 242 214 205 190 180 172 183 184 182 175 172 166 163 158 157 153 154 157 153 157 165 172 183 176
242 256 238 234 218 215 221 202 175 172 170 183 167 174 181 181 178 175 167 165 161 157 157 158 158 159 150 173 166 179 190 186
247 241 228 218 210 208 200 183 220 211 199 188 185 178 181 179 177 173 168 162 159 158 154 165 165 163 158 153 165 180 195 167
274 236 210 199 196 191 193 201 196 200 205 187 175 177 180 177 176 173 166 161 160 158 168 167 172 165 166 162 181 190 192 182
259 202 187 187 190 191 181 174 180 163 177 182 171 175 179 177 177 172 167 164 163 164 174 173 175 169 169 174 176 199 195 195
201 196 190 192 205 200 193 191 185 176 171 166 166 176 177 178 175 171 169 170 168 175 174 176 170 165 165 162 168 193 221 232
183 199 198 195 202 207 204 198 193 181 158 160 166 168 173 173 173 171 176 171 173 180 176 169 171 171 164 167 173 188 217 221
185 195 206 200 198 193 197 200 199 197 188 179 175 175 171 176 173 179 178 177 178 181 175 173 176 185 177 177 189 194 221 224
189 199 209 211 200 189 193 194 194 195 190 182 185 183 177 183 181 179 173 181 183 183 184 181 177 178 192 182 169 177 225 228
185 190 195 203 211 193 189 192 191 196 194 190 182 179 172 178 182 183 184 193 186 186 190 184 183 187 203 195 208 190 196 216
179 188 193 192 189 186 186 180 184 185 190 192 185 181 183 176 182 185 186 189 194 190 191 190 197 206 203 201 216 220 229 233
182 190 194 191 189 189 189 193 183 182 180 183 183 184 187 189 186 189 198 196 188 189 192 196 203 208 216 220 227 226 237 242
187 191 197 192 194 195 194 193 194 191 190 190 187 187 187 189 192 197 198 201 194 203 206 211 212 222 228 239 239 237 252 257
189 191 195 193 193 195 200 200 200 201 203 199 195 193 194 199 195 199 197 197 202 213 212 217 224 236 242 242 245 250 250 256